This is the latest recevied weather packets stored in our database for station/object VE3MNX. If no packets are shown the sender has not sent any weather packets the latest 1 day(s).
| Time | Temp. | Humidity | Pressure | Rain* | Wind** | Luminosity | Snow |
|---|---|---|---|---|---|---|---|
| 1778098096 | 10.56° C | 64% | 1011.2 hPa | 0 mm | - | - | - |
| 1778097200 | 11.11° C | 63% | 1011.2 hPa | 0 mm | - | - | - |
| 1778096300 | 11.11° C | 61% | 1010.8 hPa | 0 mm | - | - | - |
| 1778091800 | 11.67° C | 64% | 1010.8 hPa | 0 mm | - | - | - |
| 1778088200 | 11.11° C | 70% | 1010.8 hPa | 0 mm | - | - | - |
| 1778087298 | 10.56° C | 67% | 1010.8 hPa | 0 mm | - | - | - |
| 1778085497 | 10.56° C | 67% | 1010.8 hPa | 0 mm | - | - | - |
| 1778082800 | 10° C | 72% | 1010.8 hPa | 0 mm | - | - | - |
| 1778081899 | 9.44° C | 75% | 1010.5 hPa | 0 mm | - | - | - |
| 1778076498 | 7.78° C | 79% | 1010.2 hPa | 0 mm | - | - | - |
| 1778071098 | 5° C | 88% | 1009.1 hPa | 0 mm | - | - | - |
| 1778069298 | 5° C | 90% | 1009.1 hPa | 0 mm | - | - | - |
| 1778068400 | 5.56° C | 90% | 1008.5 hPa | 0 mm | - | - | - |
| 1778067498 | 6.11° C | 90% | 1008.5 hPa | 0 mm | - | - | - |
| 1778065697 | 7.78° C | 92% | 1007.8 hPa | 0 mm | - | - | - |
| 1778064798 | 7.22° C | 94% | 1007.5 hPa | 0 mm | - | - | - |
| 1778063898 | 7.78° C | 93% | 1007.1 hPa | 0 mm | - | - | - |
| 1778062098 | 7.78° C | 91% | 1006.8 hPa | 0 mm | - | - | - |
| 1778059401 | 7.22° C | 93% | 1007 hPa | 0 mm | - | - | - |
| 1778057599 | 7.22° C | 90% | 1007.5 hPa | 0 mm | - | - | - |
| 1778055799 | 7.22° C | 89% | 1006.8 hPa | 0 mm | - | - | - |
| 1778054900 | 7.22° C | 89% | 1006.8 hPa | 0.25 mm | - | - | - |
| 1778053097 | 7.22° C | 92% | 1006.8 hPa | 0.25 mm | - | - | - |
| 1778051298 | 7.22° C | 93% | 1007.5 hPa | 0 mm | - | - | - |
| 1778050397 | 7.22° C | 93% | 1007.5 hPa | 0 mm | - | - | - |
* Rain latest hour (hover to see other rain measurements)
** Current wind speed in m/s (hover to see current wind gust speed)